• In Belarus
  • List of Countries
  • For 7 days
  • Water Temperature
  • Satellite Maps
  • Weather Map
  • Weather Widgets
  • user-avatar
    Login

    Hourly Weather Nizwa

    Today, 21 November, Tuesday

    Time Temperature Precipitation Wind Pressure Humidity
    00:00 +19°C° 0 mm 1 mps 698 mmHg 28%
    01:00 +16°C° 0 mm 0 mps 698 mmHg 30%
    02:00 +15°C° 0 mm 0 mps 697 mmHg 31%
    03:00 +15°C° 0 mm 0 mps 697 mmHg 33%
    04:00 +14°C° 0 mm 0 mps 697 mmHg 34%
    05:00 +14°C° 0 mm 0 mps 697 mmHg 34%
    06:00 +14°C° 0 mm 0 mps 697 mmHg 34%
    07:00 +14°C° 0 mm 0 mps 697 mmHg 34%
    08:00 +17°C° 0 mm 0 mps 698 mmHg 29%
    09:00 +21°C° 0 mm 1 mps 699 mmHg 23%
    10:00 +23°C° 0 mm 1 mps 699 mmHg 18%
    11:00 +24°C° 0 mm 1 mps 699 mmHg 16%
    12:00 +25°C° 0 mm 1 mps 698 mmHg 14%
    13:00 +26°C° 0 mm 1 mps 698 mmHg 12%
    14:00 +27°C° 0 mm 1 mps 698 mmHg 12%
    15:00 +27°C° 0 mm 2 mps 697 mmHg 12%
    16:00 +27°C° 0 mm 2 mps 697 mmHg 12%
    17:00 +25°C° 0 mm 2 mps 697 mmHg 15%
    18:00 +24°C° 0 mm 1 mps 697 mmHg 19%
    19:00 +22°C° 0 mm 1 mps 697 mmHg 22%
    20:00 +21°C° 0 mm 1 mps 697 mmHg 24%
    21:00 +21°C° 0 mm 1 mps 697 mmHg 26%
    22:00 +20°C° 0 mm 1 mps 697 mmHg 28%
    23:00 +19°C° 0 mm 1 mps 696 mmHg 32%

    Tomorrow, 22 November, Wednesday

    Time Temperature Precipitation Wind Pressure Humidity
    00:00 +19°C° 0 mm 1 mps 696 mmHg 36%
    01:00 +18°C° 0 mm 1 mps 696 mmHg 40%
    02:00 +16°C° 0 mm 1 mps 695 mmHg 43%
    03:00 +16°C° 0 mm 1 mps 695 mmHg 46%
    04:00 +14°C° 0 mm 0 mps 695 mmHg 49%
    05:00 +14°C° 0 mm 0 mps 695 mmHg 49%
    06:00 +14°C° 0 mm 0 mps 696 mmHg 48%
    07:00 +15°C° 0 mm 0 mps 696 mmHg 48%
    08:00 +17°C° 0 mm 0 mps 697 mmHg 41%
    09:00 +21°C° 0 mm 1 mps 697 mmHg 35%
    10:00 +23°C° 0 mm 1 mps 698 mmHg 28%
    11:00 +24°C° 0 mm 1 mps 698 mmHg 25%
    12:00 +25°C° 0 mm 1 mps 697 mmHg 22%
    13:00 +27°C° 0 mm 2 mps 697 mmHg 19%
    14:00 +27°C° 0 mm 2 mps 696 mmHg 19%
    15:00 +27°C° 0 mm 2 mps 696 mmHg 19%
    16:00 +27°C° 0 mm 2 mps 696 mmHg 18%
    17:00 +25°C° 0 mm 2 mps 696 mmHg 21%
    18:00 +24°C° 0 mm 1 mps 696 mmHg 24%
    19:00 +23°C° 0 mm 1 mps 696 mmHg 27%
    20:00 +22°C° 0 mm 1 mps 696 mmHg 29%
    21:00 +21°C° 0 mm 1 mps 696 mmHg 31%
    22:00 +21°C° 0 mm 1 mps 696 mmHg 33%
    23:00 +20°C° 0 mm 1 mps 696 mmHg 39%

    Day after tomorrow, 23 November, Thursday

    Time Temperature Precipitation Wind Pressure Humidity
    00:00 +19°C° 0 mm 1 mps 696 mmHg 44%
    01:00 +19°C° 0 mm 1 mps 695 mmHg 49%
    02:00 +18°C° 0 mm 1 mps 695 mmHg 53%
    03:00 +18°C° 0 mm 1 mps 695 mmHg 58%
    04:00 +15°C° 0 mm 0 mps 694 mmHg 62%
    05:00 +15°C° 0 mm 0 mps 695 mmHg 62%
    06:00 +15°C° 0 mm 0 mps 695 mmHg 62%
    07:00 +15°C° 0 mm 0 mps 696 mmHg 61%
    08:00 +17°C° 0 mm 0 mps 696 mmHg 53%
    09:00 +21°C° 0 mm 1 mps 697 mmHg 45%
    10:00 +23°C° 0 mm 1 mps 698 mmHg 37%
    11:00 +25°C° 0 mm 1 mps 697 mmHg 33%
    12:00 +26°C° 0 mm 1 mps 697 mmHg 29%
    13:00 +27°C° 0 mm 1 mps 696 mmHg 25%
    14:00 +27°C° 0 mm 1 mps 696 mmHg 25%
    15:00 +27°C° 0 mm 2 mps 696 mmHg 24%
    16:00 +27°C° 0 mm 2 mps 696 mmHg 24%
    17:00 +26°C° 0 mm 2 mps 696 mmHg 27%
    18:00 +25°C° 0 mm 1 mps 696 mmHg 30%
    19:00 +24°C° 0 mm 1 mps 696 mmHg 33%
    20:00 +23°C° 0 mm 1 mps 696 mmHg 36%
    21:00 +22°C° 0 mm 1 mps 696 mmHg 38%
    22:00 +22°C° 0 mm 1 mps 697 mmHg 40%
    23:00 +21°C° 0 mm 1 mps 696 mmHg 44%

    24 November, Friday

    Time Temperature Precipitation Wind Pressure Humidity
    00:00 +20°C° 0 mm 1 mps 696 mmHg 47%
    01:00 +20°C° 0 mm 1 mps 695 mmHg 51%
    02:00 +19°C° 0 mm 1 mps 695 mmHg 55%
    03:00 +19°C° 0 mm 1 mps 695 mmHg 58%
    04:00 +16°C° 0 mm 0 mps 695 mmHg 62%
    05:00 +16°C° 0 mm 0 mps 696 mmHg 61%
    06:00 +16°C° 0 mm 0 mps 696 mmHg 61%
    07:00 +16°C° 0 mm 0 mps 697 mmHg 61%
    08:00 +18°C° 0 mm 0 mps 697 mmHg 54%
    09:00 +22°C° 0 mm 1 mps 698 mmHg 47%
    10:00 +24°C° 0 mm 1 mps 699 mmHg 39%
    11:00 +25°C° 0 mm 1 mps 698 mmHg 36%
    12:00 +26°C° 0 mm 1 mps 698 mmHg 32%
    13:00 +28°C° 0 mm 2 mps 697 mmHg 28%
    14:00 +28°C° 0 mm 2 mps 697 mmHg 27%
    15:00 +28°C° 0 mm 2 mps 697 mmHg 27%
    16:00 +28°C° 0 mm 2 mps 697 mmHg 26%
    17:00 +27°C° 0 mm 2 mps 697 mmHg 29%
    18:00 +26°C° 0 mm 2 mps 697 mmHg 32%
    19:00 +25°C° 0 mm 1 mps 697 mmHg 35%
    20:00 +24°C° 0 mm 1 mps 698 mmHg 36%
    21:00 +23°C° 0 mm 1 mps 698 mmHg 38%
    22:00 +23°C° 0 mm 1 mps 698 mmHg 40%
    23:00 +22°C° 0 mm 1 mps 698 mmHg 42%

    25 November, Saturday

    Time Temperature Precipitation Wind Pressure Humidity
    00:00 +22°C° 0 mm 1 mps 697 mmHg 44%
    01:00 +21°C° 0 mm 1 mps 697 mmHg 46%
    02:00 +20°C° 0 mm 1 mps 697 mmHg 49%
    03:00 +20°C° 0 mm 1 mps 697 mmHg 53%
    04:00 +19°C° 0 mm 1 mps 697 mmHg 56%
    05:00 +19°C° 0 mm 1 mps 697 mmHg 56%
    06:00 +19°C° 0 mm 1 mps 698 mmHg 55%
    07:00 +19°C° 0 mm 1 mps 698 mmHg 55%
    08:00 +19°C° 0 mm 0 mps 699 mmHg 49%
    09:00 +21°C° 0 mm 0 mps 700 mmHg 42%
    10:00 +23°C° 0 mm 0 mps 700 mmHg 35%
    11:00 +26°C° 0 mm 1 mps 700 mmHg 32%
    12:00 +28°C° 0 mm 1 mps 699 mmHg 29%
    13:00 +29°C° 0 mm 1 mps 699 mmHg 26%
    14:00 +29°C° 0 mm 2 mps 698 mmHg 25%
    15:00 +29°C° 0 mm 2 mps 698 mmHg 25%
    16:00 +29°C° 0 mm 2 mps 698 mmHg 25%
    17:00 +28°C° 0 mm 2 mps 699 mmHg 28%
    18:00 +27°C° 0 mm 2 mps 699 mmHg 32%
    19:00 +26°C° 0 mm 1 mps 699 mmHg 35%
    20:00 +25°C° 0 mm 1 mps 699 mmHg 38%
    21:00 +24°C° 0 mm 1 mps 699 mmHg 40%
    22:00 +23°C° 0 mm 1 mps 699 mmHg 43%
    23:00 +23°C° 0 mm 1 mps 699 mmHg 46%

    26 November, Sunday

    Time Temperature Precipitation Wind Pressure Humidity
    00:00 +22°C° 0 mm 1 mps 698 mmHg 48%
    01:00 +21°C° 0 mm 1 mps 698 mmHg 51%
    02:00 +21°C° 0 mm 1 mps 698 mmHg 54%
    03:00 +20°C° 0 mm 1 mps 698 mmHg 57%
    04:00 +18°C° 0 mm 0 mps 698 mmHg 59%
    05:00 +18°C° 0 mm 0 mps 698 mmHg 60%
    06:00 +18°C° 0 mm 0 mps 699 mmHg 60%
    07:00 +18°C° 0 mm 0 mps 699 mmHg 61%
    08:00 +21°C° 0 mm 1 mps 700 mmHg 54%
    09:00 +23°C° 0 mm 1 mps 700 mmHg 47%
    10:00 +25°C° 0 mm 2 mps 701 mmHg 40%
    11:00 +26°C° 0 mm 2 mps 700 mmHg 35%
    12:00 +28°C° 0 mm 3 mps 700 mmHg 31%
    13:00 +29°C° 0 mm 4 mps 699 mmHg 26%
    14:00 +29°C° 0 mm 4 mps 699 mmHg 25%
    15:00 +29°C° 0 mm 4 mps 699 mmHg 24%
    16:00 +29°C° 0 mm 4 mps 698 mmHg 23%
    17:00 +27°C° 0 mm 3 mps 698 mmHg 27%
    18:00 +26°C° 0 mm 3 mps 698 mmHg 31%
    19:00 +24°C° 0 mm 2 mps 698 mmHg 36%
    20:00 +24°C° 0 mm 2 mps 698 mmHg 40%
    21:00 +23°C° 0 mm 2 mps 698 mmHg 44%
    22:00 +21°C° 0 mm 2 mps 698 mmHg 48%
    23:00 +21°C° 0 mm 2 mps 698 mmHg 52%
    Show more